STARLINK-11628, 63139

Orbit data source: Space-Track

STARLINK-11628, 63139 is a payload satellite owned by SpaceX/Seattle (US) in LEO that was launched on Mon, 03 Mar 2025 UTC via an FALCON 9 launch vehicle from the Air Force Eastern Test Range (AFETR). Payload-class satellites include a variety of spacecraft equipped with specific instruments for various scientific and technological missions. These include communications satellites like Starlink; space stations such as the ISS; scientific satellites like the Hubble; Earth observation satellites from companies like Planet Labs, Umbra, and HawkEye 360; GPS; miniature CubeSats for education and research; and military/defense satellites.

Loading next visibility...
Identifier
63139, 2025-043H
Orbit
LEO
Last TLE update
1 day ago
Origin
Manufacturer
SpaceX/Seattle
Mission
Operational Commercial Communications
Bus & Motor
STARLINK V2M, Unknown motor
Mass
730 kg wet, ~700 kg dry
Launch date (UTC)
2025-03-03 (4 months ago)
Launch vehicle
FALCON 9
Launch site
Air Force Eastern Test Range (AFETR)
Object type
Payload
Rocket body
Debris
Shape & HBR
Box + 2 Pan, 29 m
Radar Cross Section
36.964 m², Large (>1 m²)

Expand to show TLE details & history

TLE from 1 day ago
0 STARLINK-11628
1 63139U 25043H   25169.06331004  .00178904  00000-0  13672-2 0  9996
2 63139  42.9990  45.7657 0001843 287.9528  72.1139 15.70852495 17858
Epoch: 2025-06-18T01:31Z
TLE epoch observation values (Epoch: 2025-06-18T01:31:09.987Z)
Latitude
0.00001°
Longitude
116.42337°
Altitude
355.849 km
Speed
7.698 km/s
True Right ascension
03h 03m 03s
True Declination
0° 00' 00"
Sunlit
Object was in daylight at epoch
Visualization orbit readout
Latitude
-43.02839°
Longitude
24.71573°
Altitude
367.401 km
Speed
7.69 km/s
Apparent Right ascension
00h 56m 02s
Apparent Declination
-60° 38' 51"
Sunlit
Object is in full shadow
Visualization observer readout
Local Sidereal Time
16:59:05
Azimuth
140.283° SSE
Elevation
-47.98°
Doppler factor
1
Orbital elements
Apogee altitude
359.683 km
Perigee altitude
357.2 km
Semi-major axis
6,736.578 km
Eccentricity
0.00018
Inclination
42.999°
RAAN
45.7657°
Arg. of periapsis
287.9528°
True anomaly
Unknown
Mean anomaly
72.1139°
Eccentric anomaly
Unknown
Mean motion
3.9254 °/min
Orbital period
91.71 mins
BSTAR
0.0013672
Loading maneuver chart data...
Loading SW <> Apogee altitude chart data...
Loading historical data...
Loading historical data...
Loading historical data...
Loading historical data...
Loading historical data...
Loading historical data...
Loading historical data...

STARLINK-11628 Visibility forecast

Observer location: undefined°, undefined°

Span
Click to sort rows by Start time (UTC) header in descending order
Start Az.
Max El. time (UTC)
Max El. Az.
Max El.
End time (UTC)
End Az.
4 mins2025-06-19 18:56:39.807Z220.423° SW2025-06-19 18:58:39.807Z145.444° SSE34.419°2025-06-19 19:00:39.807Z85.396° E
4 mins2025-06-19 22:09:39.807Z306.798° NW2025-06-19 22:10:39.807Z349.007° N36.403°2025-06-19 22:13:39.807Z84.952° E
4 mins2025-06-19 23:45:39.807Z267.343° W2025-06-19 23:46:39.807Z229.888° WSW35.783°2025-06-19 23:49:39.807Z129.344° SE
|